| time (UTC) | temp C | wind direction | speed KPH | gust KPH | rain 1hr cm | rain 24hr cm | rain mn cm | humidity % | barometer mb |
| 20260508115306 | 3 | 0 | 1.6 | 6.4 | 0.00 | 0.03 | 0.00 | 67 | 1013.5 |
| 20260508114132 | 2 | 0 | 0.0 | 0.0 | 0.00 | 0.03 | 0.00 | 72 | 1013.6 |
| 20260508113637 | 2 | 0 | 0.0 | 0.0 | 0.00 | 0.03 | 0.00 | 73 | 1013.6 |
| 20260508113131 | 2 | 0 | 0.0 | 0.0 | 0.00 | 0.03 | 0.00 | 75 | 1013.6 |
| 20260508112624 | 2 | 0 | 0.0 | 0.0 | 0.00 | 0.03 | 0.00 | 76 | 1013.6 |
| 20260508112108 | 2 | 0 | 0.0 | 0.0 | 0.00 | 0.03 | 0.00 | 77 | 1013.6 |
| 20260508111603 | 2 | 0 | 0.0 | 3.2 | 0.00 | 0.03 | 0.00 | 77 | 1013.5 |
| 20260508111106 | 2 | 0 | 0.0 | 0.0 | 0.00 | 0.03 | 0.00 | 79 | 1013.6 |
| 20260508105941 | 1 | 0 | 0.0 | 0.0 | 0.00 | 0.03 | 0.00 | 83 | 1013.7 |
| 20260508104808 | 1 | 0 | 1.6 | 0.0 | 0.00 | 0.03 | 0.00 | 84 | 1013.8 |
| 20260508104306 | 1 | 0 | 0.0 | 8.0 | 0.00 | 0.03 | 0.00 | 85 | 1013.7 |
| 20260508103123 | 0 | 0 | 0.0 | 1.6 | 0.00 | 0.03 | 0.00 | 84 | 1013.8 |
| 20260508102620 | 0 | 0 | 0.0 | 1.6 | 0.00 | 0.03 | 0.00 | 83 | 1013.7 |
| 20260508101501 | 1 | 0 | 0.0 | 3.2 | 0.00 | 0.03 | 0.00 | 83 | 1013.6 |
| 20260508100346 | 1 | 0 | 0.0 | 1.6 | 0.00 | 0.03 | 0.00 | 82 | 1013.8 |
| 20260508095852 | 1 | 0 | 0.0 | 0.0 | 0.00 | 0.03 | 0.00 | 81 | 1013.7 |
| 20260508095333 | 1 | 0 | 0.0 | 0.0 | 0.00 | 0.03 | 0.00 | 80 | 1013.7 |
| 20260508094144 | 2 | 0 | 0.0 | 0.0 | 0.00 | 0.03 | 0.00 | 79 | 1013.8 |
| 20260508093636 | 2 | 0 | 0.0 | 0.0 | 0.00 | 0.03 | 0.00 | 79 | 1013.7 |
| 20260508093129 | 2 | 0 | 0.0 | 0.0 | 0.00 | 0.03 | 0.00 | 80 | 1013.7 |
| 20260508090736 | 2 | 0 | 0.0 | 1.6 | 0.00 | 0.03 | 0.00 | 80 | 1013.7 |
| 20260508090219 | 2 | 0 | 0.0 | 3.2 | 0.00 | 0.03 | 0.00 | 80 | 1013.9 |
| 20260508085700 | 2 | 0 | 0.0 | 3.2 | 0.00 | 0.03 | 0.00 | 81 | 1014.0 |
| 20260508085142 | 2 | 0 | 0.0 | 0.0 | 0.00 | 0.03 | 0.00 | 82 | 1014.1 |
| 20260508084627 | 2 | 0 | 0.0 | 0.0 | 0.00 | 0.03 | 0.00 | 84 | 1014.2 |
| 20260508084116 | 1 | 0 | 0.0 | 0.0 | 0.00 | 0.03 | 0.00 | 84 | 1014.3 |
| 20260508083618 | 1 | 0 | 0.0 | 0.0 | 0.00 | 0.03 | 0.00 | 83 | 1014.3 |
| 20260508081829 | 1 | 0 | 0.0 | 0.0 | 0.00 | 0.03 | 0.00 | 82 | 1014.8 |
| 20260508081339 | 1 | 0 | 0.0 | 0.0 | 0.00 | 0.03 | 0.00 | 81 | 1014.8 |
| 20260508080819 | 2 | 0 | 0.0 | 0.0 | 0.00 | 0.03 | 0.00 | 81 | 1014.9 |
| 20260508080304 | 2 | 0 | 0.0 | 0.0 | 0.00 | 0.03 | 0.00 | 81 | 1015.2 |
| 20260508075812 | 2 | 0 | 0.0 | 0.0 | 0.00 | 0.03 | 0.00 | 81 | 1015.2 |
| 20260508075257 | 2 | 0 | 0.0 | 0.0 | 0.00 | 0.03 | 0.00 | 80 | 1015.4 |
| 20260508074743 | 2 | 0 | 0.0 | 0.0 | 0.00 | 0.03 | 0.00 | 79 | 1015.3 |
| 20260508074225 | 2 | 0 | 0.0 | 0.0 | 0.00 | 0.03 | 0.00 | 78 | 1015.4 |
| 20260508073730 | 3 | 0 | 0.0 | 0.0 | 0.00 | 0.03 | 0.00 | 78 | 1015.6 |
| 20260508073212 | 3 | 0 | 0.0 | 0.0 | 0.00 | 0.03 | 0.00 | 77 | 1015.7 |
| 20260508072705 | 3 | 0 | 0.0 | 0.0 | 0.00 | 0.03 | 0.00 | 76 | 1015.9 |
| 20260508071528 | 3 | 0 | 0.0 | 0.0 | 0.00 | 0.03 | 0.00 | 75 | 1016.0 |
| 20260508071030 | 3 | 0 | 0.0 | 0.0 | 0.00 | 0.03 | 0.00 | 74 | 1016.1 |
| 20260508070529 | 3 | 0 | 0.0 | 1.6 | 0.00 | 0.03 | 0.00 | 73 | 1016.4 |
| 20260508064800 | 3 | 0 | 0.0 | 3.2 | 0.00 | 0.03 | 0.00 | 71 | 1016.1 |
| 20260508063608 | 4 | 0 | 1.6 | 4.8 | 0.00 | 0.03 | 0.00 | 69 | 1016.2 |
| 20260508063105 | 4 | 0 | 1.6 | 4.8 | 0.00 | 0.03 | 0.00 | 68 | 1015.9 |
| 20260508062546 | 5 | 0 | 0.0 | 3.2 | 0.00 | 0.03 | 0.00 | 67 | 1016.0 |
| 20260508062035 | 5 | 0 | 1.6 | 3.2 | 0.00 | 0.03 | 0.00 | 65 | 1016.1 |
| 20260508061525 | 5 | 0 | 0.0 | 4.8 | 0.00 | 0.03 | 0.00 | 64 | 1016.2 |
| 20260508061027 | 5 | 0 | 0.0 | 4.8 | 0.00 | 0.03 | 0.00 | 63 | 1016.3 |
| 20260508060533 | 5 | 0 | 0.0 | 0.0 | 0.00 | 0.03 | 0.00 | 64 | 1016.0 |
| 20260508060041 | 4 | 0 | 0.0 | 0.0 | 0.00 | 0.03 | 0.00 | 64 | 1016.2 |
| 20260508054904 | 5 | 0 | 0.0 | 0.0 | 0.00 | 0.03 | 0.03 | 64 | 1016.4 |
| 20260508054402 | 5 | 0 | 0.0 | 0.0 | 0.00 | 0.03 | 0.03 | 62 | 1016.4 |
| 20260508053859 | 6 | 0 | 0.0 | 8.0 | 0.00 | 0.03 | 0.03 | 60 | 1016.5 |
| 20260508053341 | 6 | 0 | 0.0 | 8.0 | 0.00 | 0.03 | 0.03 | 60 | 1016.6 |
| 20260508052202 | 6 | 0 | 1.6 | 8.0 | 0.00 | 0.03 | 0.03 | 59 | 1016.5 |
| 20260508051656 | 6 | 0 | 1.6 | 8.0 | 0.00 | 0.03 | 0.03 | 58 | 1016.6 |
| 20260508051144 | 6 | 0 | 1.6 | 8.0 | 0.00 | 0.03 | 0.03 | 58 | 1016.5 |
| 20260508050650 | 6 | 0 | 3.2 | 6.4 | 0.00 | 0.03 | 0.03 | 58 | 1016.5 |
| 20260508050147 | 6 | 0 | 1.6 | 6.4 | 0.00 | 0.03 | 0.03 | 60 | 1016.6 |
| 20260508045007 | 5 | 0 | 0.0 | 3.2 | 0.00 | 0.03 | 0.03 | 61 | 1016.8 |
| 20260508044455 | 5 | 0 | 0.0 | 1.6 | 0.00 | 0.03 | 0.03 | 61 | 1016.8 |
| 20260508043957 | 5 | 0 | 0.0 | 3.2 | 0.00 | 0.03 | 0.03 | 63 | 1016.7 |
| 20260508043455 | 5 | 0 | 0.0 | 0.0 | 0.00 | 0.03 | 0.03 | 64 | 1016.8 |
| 20260508042937 | 5 | 0 | 0.0 | 0.0 | 0.00 | 0.03 | 0.03 | 65 | 1016.7 |
| 20260508042439 | 5 | 0 | 0.0 | 0.0 | 0.00 | 0.03 | 0.03 | 64 | 1016.8 |
| 20260508041921 | 5 | 0 | 0.0 | 0.0 | 0.00 | 0.03 | 0.03 | 64 | 1016.7 |
| 20260508041422 | 5 | 0 | 0.0 | 0.0 | 0.00 | 0.03 | 0.03 | 64 | 1016.8 |
| 20260508035637 | 6 | 0 | 0.0 | 1.6 | 0.00 | 0.03 | 0.03 | 61 | 1017.0 |
| 20260508034513 | 6 | 0 | 0.0 | 1.6 | 0.00 | 0.03 | 0.03 | 58 | 1017.2 |
| 20260508034012 | 6 | 0 | 0.0 | 0.0 | 0.00 | 0.03 | 0.03 | 57 | 1017.1 |
| 20260508033501 | 6 | 0 | 0.0 | 1.6 | 0.00 | 0.03 | 0.03 | 58 | 1017.1 |
| 20260508033001 | 6 | 0 | 0.0 | 1.6 | 0.00 | 0.03 | 0.03 | 57 | 1017.1 |
| 20260508032507 | 6 | 0 | 0.0 | 3.2 | 0.00 | 0.03 | 0.03 | 59 | 1017.1 |
| 20260508031401 | 7 | 0 | 0.0 | 3.2 | 0.00 | 0.03 | 0.03 | 58 | 1017.3 |
| 20260508030858 | 7 | 0 | 0.0 | 3.2 | 0.00 | 0.03 | 0.03 | 58 | 1017.2 |
| 20260508030402 | 7 | 0 | 0.0 | 1.6 | 0.00 | 0.03 | 0.03 | 58 | 1017.3 |
| 20260508025856 | 7 | 0 | 0.0 | 0.0 | 0.00 | 0.03 | 0.03 | 58 | 1017.3 |
| 20260508025336 | 7 | 0 | 0.0 | 0.0 | 0.00 | 0.03 | 0.03 | 58 | 1017.3 |
| 20260508024821 | 7 | 0 | 0.0 | 0.0 | 0.00 | 0.03 | 0.03 | 58 | 1017.3 |
| 20260508024308 | 7 | 0 | 0.0 | 6.4 | 0.00 | 0.03 | 0.03 | 59 | 1017.4 |
| 20260508023818 | 7 | 0 | 0.0 | 6.4 | 0.00 | 0.03 | 0.03 | 59 | 1017.5 |
| 20260508022651 | 7 | 0 | 0.0 | 0.0 | 0.00 | 0.03 | 0.03 | 59 | 1017.3 |
| 20260508022134 | 7 | 0 | 0.0 | 0.0 | 0.00 | 0.03 | 0.03 | 58 | 1017.3 |
| 20260508021621 | 7 | 0 | 0.0 | 0.0 | 0.00 | 0.03 | 0.03 | 57 | 1017.1 |
| 20260508021130 | 7 | 0 | 0.0 | 0.0 | 0.00 | 0.03 | 0.03 | 56 | 1017.1 |
| 20260508020619 | 8 | 0 | 0.0 | 0.0 | 0.00 | 0.03 | 0.03 | 55 | 1017.2 |
| 20260508020103 | 8 | 0 | 0.0 | 0.0 | 0.00 | 0.03 | 0.03 | 52 | 1017.0 |
| 20260508015552 | 8 | 0 | 0.0 | 0.0 | 0.00 | 0.03 | 0.03 | 51 | 1017.0 |
| 20260508015056 | 8 | 0 | 0.0 | 0.0 | 0.00 | 0.03 | 0.03 | 50 | 1017.0 |
| 20260508014604 | 9 | 0 | 0.0 | 0.0 | 0.00 | 0.03 | 0.03 | 50 | 1017.0 |
| 20260508014055 | 9 | 0 | 0.0 | 0.0 | 0.00 | 0.03 | 0.03 | 51 | 1016.9 |
| 20260508013604 | 9 | 0 | 0.0 | 0.0 | 0.00 | 0.03 | 0.03 | 48 | 1016.9 |
| 20260508013047 | 9 | 0 | 0.0 | 0.0 | 0.00 | 0.03 | 0.03 | 50 | 1016.9 |
| 20260508012537 | 10 | 0 | 0.0 | 6.4 | 0.00 | 0.03 | 0.03 | 48 | 1016.8 |
| 20260508011415 | 10 | 0 | 1.6 | 8.0 | 0.00 | 0.03 | 0.03 | 47 | 1016.8 |
| 20260508010913 | 10 | 0 | 1.6 | 16.1 | 0.00 | 0.03 | 0.03 | 46 | 1016.8 |
| 20260508010419 | 10 | 0 | 3.2 | 16.1 | 0.00 | 0.03 | 0.03 | 44 | 1016.9 |
| 20260508005902 | 10 | 0 | 3.2 | 16.1 | 0.00 | 0.03 | 0.03 | 45 | 1016.8 |
| 20260508005356 | 10 | 0 | 3.2 | 16.1 | 0.00 | 0.03 | 0.03 | 43 | 1016.8 |
| 20260508004841 | 10 | 0 | 1.6 | 11.3 | 0.00 | 0.03 | 0.03 | 43 | 1016.9 |
| 20260508003650 | 11 | 0 | 3.2 | 8.0 | 0.00 | 0.03 | 0.03 | 42 | 1016.9 |
| 20260508003143 | 12 | 0 | 3.2 | 14.5 | 0.00 | 0.03 | 0.03 | 41 | 1016.7 |
| 20260508002037 | 12 | 0 | 3.2 | 14.5 | 0.00 | 0.03 | 0.03 | 42 | 1016.9 |
| 20260508001520 | 11 | 0 | 3.2 | 14.5 | 0.00 | 0.03 | 0.03 | 42 | 1017.1 |
| 20260508001015 | 11 | 0 | 4.8 | 14.5 | 0.00 | 0.03 | 0.03 | 42 | 1017.3 |
| 20260508000512 | 11 | 0 | 4.8 | 14.5 | 0.00 | 0.03 | 0.03 | 42 | 1017.3 |
| 20260508000011 | 11 | 0 | 3.2 | 14.5 | 0.00 | 0.03 | 0.03 | 42 | 1017.5 |
| 20260507235457 | 11 | 0 | 3.2 | 14.5 | 0.00 | 0.03 | 0.03 | 45 | 1017.3 |
| 20260507234939 | 11 | 0 | 3.2 | 14.5 | 0.00 | 0.03 | 0.03 | 41 | 1017.4 |
| 20260507234438 | 11 | 0 | 3.2 | 14.5 | 0.00 | 0.03 | 0.03 | 40 | 1017.4 |
| 20260507233922 | 12 | 0 | 1.6 | 14.5 | 0.00 | 0.03 | 0.03 | 39 | 1017.4 |
| 20260507233424 | 12 | 0 | 3.2 | 19.3 | 0.00 | 0.03 | 0.03 | 36 | 1017.4 |
| 20260507232909 | 12 | 0 | 4.8 | 19.3 | 0.00 | 0.03 | 0.03 | 37 | 1017.5 |
| 20260507232405 | 12 | 0 | 4.8 | 19.3 | 0.00 | 0.03 | 0.03 | 39 | 1017.5 |
| 20260507231902 | 12 | 0 | 3.2 | 19.3 | 0.00 | 0.03 | 0.03 | 35 | 1017.5 |
| 20260507231405 | 12 | 0 | 1.6 | 8.0 | 0.00 | 0.03 | 0.03 | 34 | 1017.5 |
| 20260507230904 | 12 | 0 | 1.6 | 8.0 | 0.00 | 0.03 | 0.03 | 38 | 1017.7 |
| 20260507230351 | 12 | 0 | 1.6 | 8.0 | 0.00 | 0.03 | 0.03 | 41 | 1017.6 |
| 20260507225901 | 12 | 0 | 0.0 | 8.0 | 0.00 | 0.03 | 0.03 | 40 | 1017.6 |
| 20260507224732 | 11 | 0 | 0.0 | 4.8 | 0.00 | 0.03 | 0.03 | 39 | 1017.9 |
| 20260507224214 | 11 | 0 | 1.6 | 4.8 | 0.00 | 0.03 | 0.03 | 41 | 1017.9 |
| 20260507223714 | 10 | 0 | 0.0 | 4.8 | 0.00 | 0.03 | 0.03 | 40 | 1018.0 |
| 20260507223216 | 10 | 0 | 0.0 | 0.0 | 0.00 | 0.03 | 0.03 | 41 | 1018.1 |
| 20260507222656 | 10 | 0 | 1.6 | 0.0 | 0.00 | 0.03 | 0.03 | 42 | 1018.2 |
| 20260507222148 | 10 | 0 | 1.6 | 11.3 | 0.00 | 0.03 | 0.03 | 41 | 1018.2 |
| 20260507221631 | 10 | 0 | 1.6 | 11.3 | 0.00 | 0.03 | 0.03 | 41 | 1018.2 |
| 20260507221116 | 10 | 0 | 1.6 | 11.3 | 0.00 | 0.03 | 0.03 | 43 | 1018.4 |
| 20260507220623 | 10 | 0 | 1.6 | 11.3 | 0.00 | 0.03 | 0.03 | 41 | 1018.5 |
| 20260507220125 | 10 | 0 | 1.6 | 8.0 | 0.00 | 0.03 | 0.03 | 40 | 1018.6 |
| 20260507215613 | 11 | 0 | 1.6 | 8.0 | 0.00 | 0.03 | 0.03 | 41 | 1018.7 |
| 20260507215059 | 11 | 0 | 1.6 | 4.8 | 0.00 | 0.03 | 0.03 | 45 | 1018.8 |
| 20260507214608 | 10 | 0 | 0.0 | 8.0 | 0.00 | 0.03 | 0.03 | 44 | 1018.9 |
| 20260507213432 | 10 | 0 | 1.6 | 12.9 | 0.00 | 0.03 | 0.03 | 44 | 1019.0 |
| 20260507212917 | 10 | 0 | 3.2 | 12.9 | 0.00 | 0.03 | 0.03 | 46 | 1019.0 |
| 20260507211746 | 10 | 0 | 1.6 | 11.3 | 0.00 | 0.03 | 0.03 | 48 | 1019.3 |
| 20260507211253 | 10 | 0 | 1.6 | 11.3 | 0.00 | 0.03 | 0.03 | 46 | 1019.3 |
| 20260507210759 | 10 | 0 | 1.6 | 11.3 | 0.00 | 0.03 | 0.03 | 47 | 1019.5 |
| 20260507210253 | 10 | 0 | 3.2 | 11.3 | 0.00 | 0.03 | 0.03 | 46 | 1019.4 |
| 20260507205743 | 10 | 0 | 0.0 | 6.4 | 0.00 | 0.03 | 0.03 | 46 | 1019.6 |
| 20260507205250 | 10 | 0 | 0.0 | 6.4 | 0.00 | 0.03 | 0.03 | 46 | 1019.7 |
| 20260507204745 | 10 | 0 | 1.6 | 0.0 | 0.00 | 0.03 | 0.03 | 48 | 1019.8 |
| 20260507204228 | 10 | 0 | 3.2 | 12.9 | 0.00 | 0.03 | 0.03 | 47 | 1020.0 |
| 20260507203724 | 10 | 0 | 3.2 | 12.9 | 0.00 | 0.03 | 0.03 | 47 | 1020.1 |
| 20260507202614 | 10 | 0 | 4.8 | 14.5 | 0.00 | 0.03 | 0.03 | 45 | 1020.2 |
| 20260507202103 | 10 | 0 | 4.8 | 24.1 | 0.00 | 0.03 | 0.03 | 46 | 1020.2 |
| 20260507201559 | 10 | 0 | 6.4 | 24.1 | 0.00 | 0.03 | 0.03 | 48 | 1020.3 |
| 20260507201054 | 10 | 0 | 8.0 | 24.1 | 0.00 | 0.03 | 0.03 | 48 | 1020.4 |
| 20260507200538 | 10 | 0 | 6.4 | 24.1 | 0.00 | 0.03 | 0.03 | 47 | 1020.6 |
| 20260507200030 | 10 | 0 | 4.8 | 17.7 | 0.00 | 0.03 | 0.03 | 47 | 1020.6 |
| 20260507195520 | 10 | 0 | 3.2 | 17.7 | 0.00 | 0.03 | 0.03 | 48 | 1020.8 |
| 20260507195004 | 10 | 0 | 6.4 | 17.7 | 0.00 | 0.03 | 0.03 | 49 | 1020.8 |
| 20260507194500 | 10 | 0 | 4.8 | 17.7 | 0.00 | 0.03 | 0.03 | 47 | 1020.6 |
| 20260507194007 | 10 | 0 | 4.8 | 12.9 | 0.00 | 0.03 | 0.03 | 50 | 1020.7 |
| 20260507192836 | 10 | 0 | 4.8 | 14.5 | 0.00 | 0.03 | 0.03 | 52 | 1020.8 |
| 20260507192318 | 10 | 0 | 6.4 | 14.5 | 0.00 | 0.03 | 0.03 | 51 | 1021.0 |
| 20260507191826 | 9 | 0 | 4.8 | 14.5 | 0.00 | 0.03 | 0.03 | 57 | 1021.2 |
| 20260507191314 | 8 | 0 | 3.2 | 11.3 | 0.00 | 0.03 | 0.03 | 64 | 1021.2 |
| 20260507190804 | 8 | 0 | 3.2 | 8.0 | 0.00 | 0.03 | 0.03 | 63 | 1021.4 |
| 20260507190309 | 8 | 0 | 1.6 | 8.0 | 0.00 | 0.03 | 0.03 | 64 | 1021.6 |
| 20260507185753 | 8 | 0 | 1.6 | 8.0 | 0.00 | 0.03 | 0.03 | 63 | 1021.8 |
| 20260507185242 | 8 | 0 | 3.2 | 8.0 | 0.00 | 0.03 | 0.03 | 60 | 1021.9 |
| 20260507184748 | 8 | 0 | 1.6 | 6.4 | 0.00 | 0.03 | 0.03 | 63 | 1021.8 |
| 20260507184230 | 8 | 0 | 1.6 | 6.4 | 0.00 | 0.03 | 0.03 | 65 | 1021.8 |
| 20260507183736 | 7 | 0 | 1.6 | 6.4 | 0.00 | 0.03 | 0.03 | 65 | 1021.9 |
| 20260507183221 | 7 | 0 | 0.0 | 4.8 | 0.00 | 0.03 | 0.03 | 67 | 1022.0 |
| 20260507182718 | 6 | 0 | 1.6 | 4.8 | 0.00 | 0.03 | 0.03 | 73 | 1022.1 |
| 20260507182205 | 5 | 0 | 1.6 | 4.8 | 0.00 | 0.03 | 0.03 | 78 | 1022.2 |
| 20260507181647 | 5 | 0 | 1.6 | 4.8 | 0.00 | 0.03 | 0.03 | 77 | 1022.2 |
| 20260507181145 | 5 | 0 | 0.0 | 4.8 | 0.00 | 0.03 | 0.03 | 78 | 1022.3 |
| 20260507180628 | 5 | 0 | 0.0 | 3.2 | 0.00 | 0.03 | 0.03 | 79 | 1022.3 |
| 20260507180113 | 4 | 0 | 1.6 | 4.8 | 0.00 | 0.03 | 0.03 | 78 | 1022.3 |
| 20260507175554 | 4 | 0 | 1.6 | 4.8 | 0.00 | 0.03 | 0.03 | 78 | 1022.5 |
| 20260507175053 | 4 | 0 | 1.6 | 6.4 | 0.00 | 0.03 | 0.03 | 78 | 1022.6 |
| 20260507174546 | 4 | 0 | 1.6 | 6.4 | 0.00 | 0.03 | 0.03 | 78 | 1022.9 |
| 20260507174049 | 3 | 0 | 3.2 | 6.4 | 0.00 | 0.03 | 0.03 | 78 | 1022.9 |
| 20260507173540 | 3 | 0 | 3.2 | 6.4 | 0.00 | 0.05 | 0.03 | 78 | 1023.0 |
| 20260507173025 | 3 | 0 | 3.2 | 6.4 | 0.00 | 0.05 | 0.03 | 78 | 1023.0 |
| 20260507172510 | 3 | 0 | 3.2 | 6.4 | 0.00 | 0.05 | 0.03 | 79 | 1023.0 |
| 20260507171954 | 3 | 0 | 1.6 | 6.4 | 0.00 | 0.05 | 0.03 | 79 | 1023.1 |
| 20260507171447 | 3 | 0 | 3.2 | 6.4 | 0.00 | 0.05 | 0.03 | 79 | 1023.2 |
| 20260507170941 | 3 | 0 | 1.6 | 16.1 | 0.00 | 0.05 | 0.03 | 79 | 1023.2 |
| 20260507165819 | 3 | 0 | 3.2 | 16.1 | 0.00 | 0.05 | 0.03 | 79 | 1023.4 |
| 20260507165316 | 3 | 0 | 1.6 | 16.1 | 0.00 | 0.05 | 0.03 | 81 | 1023.4 |
| 20260507164800 | 3 | 0 | 1.6 | 6.4 | 0.00 | 0.05 | 0.03 | 81 | 1023.4 |
| 20260507163641 | 3 | 0 | 0.0 | 3.2 | 0.00 | 0.05 | 0.03 | 81 | 1023.6 |
| 20260507163135 | 3 | 0 | 0.0 | 0.0 | 0.00 | 0.05 | 0.03 | 80 | 1023.5 |
| 20260507162623 | 3 | 0 | 0.0 | 11.3 | 0.00 | 0.05 | 0.03 | 79 | 1023.8 |
| 20260507162125 | 3 | 0 | 1.6 | 11.3 | 0.00 | 0.05 | 0.03 | 79 | 1023.8 |
| 20260507161633 | 3 | 0 | 1.6 | 11.3 | 0.00 | 0.05 | 0.03 | 79 | 1023.7 |
| 20260507161130 | 3 | 0 | 0.0 | 4.8 | 0.00 | 0.05 | 0.03 | 79 | 1023.9 |
| 20260507160620 | 3 | 0 | 0.0 | 4.8 | 0.00 | 0.05 | 0.03 | 79 | 1024.0 |
| 20260507160122 | 3 | 0 | 0.0 | 3.2 | 0.00 | 0.05 | 0.03 | 79 | 1024.0 |
| 20260507155016 | 4 | 0 | 0.0 | 0.0 | 0.00 | 0.05 | 0.03 | 80 | 1024.3 |
| 20260507154503 | 4 | 0 | 0.0 | 0.0 | 0.00 | 0.10 | 0.03 | 78 | 1024.5 |
| 20260507153943 | 5 | 0 | 0.0 | 0.0 | 0.00 | 0.10 | 0.03 | 77 | 1024.6 |
| 20260507153427 | 5 | 0 | 0.0 | 0.0 | 0.00 | 0.10 | 0.03 | 76 | 1024.4 |
| 20260507152918 | 5 | 0 | 0.0 | 0.0 | 0.00 | 0.10 | 0.03 | 73 | 1024.5 |
| 20260507152424 | 5 | 0 | 0.0 | 0.0 | 0.00 | 0.10 | 0.03 | 70 | 1024.5 |
| 20260507151240 | 6 | 0 | 0.0 | 0.0 | 0.00 | 0.10 | 0.03 | 67 | 1024.8 |
| 20260507150133 | 5 | 0 | 0.0 | 0.0 | 0.00 | 0.13 | 0.03 | 67 | 1025.0 |
| 20260507145622 | 5 | 0 | 0.0 | 0.0 | 0.00 | 0.13 | 0.03 | 68 | 1024.9 |
| 20260507145109 | 5 | 0 | 0.0 | 0.0 | 0.00 | 0.13 | 0.03 | 70 | 1024.9 |
| 20260507144602 | 4 | 0 | 0.0 | 0.0 | 0.00 | 0.13 | 0.03 | 69 | 1025.0 |
| 20260507144052 | 4 | 0 | 0.0 | 0.0 | 0.00 | 0.13 | 0.03 | 72 | 1025.1 |
| 20260507143546 | 3 | 0 | 0.0 | 0.0 | 0.00 | 0.13 | 0.03 | 72 | 1025.2 |
| 20260507143044 | 3 | 0 | 0.0 | 0.0 | 0.00 | 0.13 | 0.03 | 78 | 1025.1 |
| 20260507142526 | 2 | 0 | 0.0 | 0.0 | 0.00 | 0.13 | 0.03 | 81 | 1025.1 |
| 20260507142036 | 1 | 0 | 0.0 | 0.0 | 0.00 | 0.13 | 0.03 | 81 | 1025.2 |
| 20260507141536 | 1 | 0 | 0.0 | 0.0 | 0.00 | 0.18 | 0.03 | 82 | 1025.2 |
| 20260507141027 | 0 | 0 | 1.6 | 4.8 | 0.00 | 0.18 | 0.03 | 82 | 1025.3 |
| 20260507140510 | 0 | 0 | 1.6 | 4.8 | 0.00 | 0.18 | 0.03 | 83 | 1025.4 |
| 20260507140000 | 0 | 0 | 1.6 | 4.8 | 0.00 | 0.18 | 0.03 | 84 | 1025.5 |
| 20260507135458 | 0 | 0 | 0.0 | 3.2 | 0.00 | 0.18 | 0.03 | 86 | 1025.5 |
| 20260507134952 | 0 | 0 | 0.0 | 1.6 | 0.00 | 0.18 | 0.03 | 87 | 1025.5 |
| 20260507134442 | -1 | 0 | 0.0 | 0.0 | 0.00 | 0.20 | 0.00 | 87 | 1025.5 |
| 20260507133925 | -1 | 0 | 0.0 | 0.0 | 0.00 | 0.23 | 0.00 | 87 | 1025.3 |
| 20260507133406 | -1 | 0 | 0.0 | 0.0 | 0.00 | 0.23 | 0.00 | 88 | 1025.3 |
| 20260507132910 | -1 | 0 | 0.0 | 0.0 | 0.00 | 0.23 | 0.00 | 87 | 1025.0 |
| 20260507131747 | -2 | 0 | 0.0 | 1.6 | 0.00 | 0.28 | 0.00 | 89 | 1025.2 |
| 20260507131255 | -2 | 0 | 0.0 | 0.0 | 0.00 | 0.28 | 0.00 | 90 | 1025.2 |
| 20260507130748 | -3 | 0 | 0.0 | 3.2 | 0.00 | 0.28 | 0.00 | 90 | 1025.2 |
| 20260507130247 | -3 | 0 | 1.6 | 3.2 | 0.00 | 0.33 | 0.00 | 89 | 1025.0 |
| 20260507125140 | -3 | 0 | 0.0 | 3.2 | 0.00 | 0.33 | 0.00 | 89 | 1024.8 |
| 20260507124634 | -3 | 0 | 0.0 | 1.6 | 0.00 | 0.36 | 0.00 | 90 | 1024.8 |
| 20260507124140 | -3 | 0 | 0.0 | 0.0 | 0.00 | 0.36 | 0.00 | 90 | 1024.7 |
| 20260507123629 | -3 | 0 | 1.6 | 6.4 | 0.00 | 0.36 | 0.00 | 91 | 1024.7 |
| 20260507123130 | -4 | 0 | 3.2 | 6.4 | 0.00 | 0.36 | 0.00 | 91 | 1024.7 |
| 20260507122633 | -4 | 0 | 1.6 | 4.8 | 0.00 | 0.36 | 0.00 | 91 | 1024.8 |
| 20260507122137 | -4 | 0 | 1.6 | 3.2 | 0.00 | 0.36 | 0.00 | 90 | 1024.8 |
| 20260507121625 | -5 | 0 | 1.6 | 3.2 | 0.00 | 0.36 | 0.00 | 90 | 1024.7 |
| 20260507120515 | -4 | 0 | 0.0 | 3.2 | 0.00 | 0.36 | 0.00 | 90 | 1024.8 |
| 20260507115957 | -4 | 0 | 0.0 | 1.6 | 0.00 | 0.36 | 0.00 | 90 | 1024.7 |